Location: Bothwell
(42.3833°S, 147.0000°E)
Time: 02:45:20
(UTC+11:00)

UNISAT 6 - Pass Details

Date: 01 October 2022
Orbit: 604 x 683 km, 97.7° (Epoch: 04 December)

Event Time Altitude Azimuth Distance (km) Brightness Sun altitude
Rises 05:01:31 0° 148° (SSE) 3,040 ? -9.0°
Reaches altitude 10° 05:04:46 10° 123° (ESE) 2,130 ? -8.4°
Maximum altitude 05:07:19 14° 90° (E) 1,846 ? -8.0°
Drops below altitude 10° 05:09:51 10° 57° (ENE) 2,131 ? -7.5°
Sets 05:13:06 0° 32° (NNE) 3,042 ? -6.9°
